Miscellaneous Local Product
Issued by NWS Hastings, NE

Home | Current Version | Previous Version | Text Only | Print | Product List | Glossary Off
Versions: 1 2 3 4 5 6 7 8 9 10 11 12 13 14 15 16 17 18 19 20 21 22 23 24 25 26 27 28 29 30 31 32 33 34 35 36 37 38 39 40 41 42 43 44 45 46 47 48 49 50

908
AXUS43 KGID 241902
MISGRI

GID CWA HOURLY WEATHER ROUNDUP
NATIONAL WEATHER SERVICE HASTINGS NE
200 PM CDT SUN SEP 24 2017

NOTE: "FAIR" INDICATES FEW OR NO CLOUDS BELOW 12,000 FEET WITH NO
SIGNIFICANT WEATHER AND/OR OBSTRUCTIONS TO VISIBILITY.

...SOUTH CENTRAL NEBRASKA...

CITY           SKY/WX    TMP DP  RH WIND       PRES   REMARKS
GRAND ISLAND   PTSUNNY   71  64  78 NW14      29.93S
HASTINGS       CLOUDY    73  60  63 SW9       29.94S
KEARNEY        LGT RAIN  60  59  96 NW10      29.97R
ORD            LGT RAIN  55  52  89 NW13      29.97R
YORK           MOSUNNY   84  63  48 SW17G23   29.89F
AURORA         CLOUDY    77  62  59 W8        29.91S
LEXINGTON      DRIZZLE   56  53  92 N7        29.99S
HOLDREGE       RAIN      57  55  94 NW10      29.97R
HEBRON         MOSUNNY   86  62  44 SW14G20   29.90F

...NEBRASKA PANHANDLE...

CITY           SKY/WX    TMP DP  RH WIND       PRES   REMARKS
CHADRON        CLOUDY    51  42  71 NE10      30.05S
ALLIANCE       CLOUDY    51  43  74 N16       30.02F
SCOTTSBLUFF    CLOUDY    53  43  68 N9        30.03F
SIDNEY         CLOUDY    52  44  74 NE14      30.02S

...WESTERN AND NORTH CENTRAL NEBRASKA...

CITY           SKY/WX    TMP DP  RH WIND       PRES   REMARKS
VALENTINE      CLOUDY    54  49  83 NW10      30.01S
AINSWORTH      CLOUDY    53  51  92 N15       30.01S
ONEILL         LGT RAIN  55  55  98 NW12      29.98S
BROKEN BOW     CLOUDY    55  51  86 N14       29.99R
IMPERIAL       CLOUDY    53  48  83 NE12      29.99F
NORTH PLATTE   CLOUDY    56  50  80 N7        30.01R
MCCOOK         LGT RAIN  56  55  97 NE10      29.97F

...EASTERN NEBRASKA...

CITY           SKY/WX    TMP DP  RH WIND       PRES   REMARKS
NORFOLK        PTSUNNY   77  65  66 W12       29.88S
SO SIOUX CITY  PTSUNNY   84  66  54 S15G26    29.87F
TEKAMAH        PTSUNNY   87  63  44 S14G26    29.87F
COLUMBUS       PTSUNNY   82  67  60 W9        29.89F
ALBION         CLOUDY    65  58  78 NW13      29.94F
OMAHA EPPLEY   PTSUNNY   86  65  49 S23G30    29.89F
OFFUTT AFB     PTSUNNY   87  66  49 SE14G23   29.88F
MILLARD        CLOUDY    89  66  46 S13       29.89F HX  91
LINCOLN        PTSUNNY   88  65  46 S16G22    29.89F HX  90
NEBRASKA CITY  PTSUNNY   87  64  46 S15G23    29.91F
BEATRICE       CLOUDY    86  64  47 S17G23    29.89F
FALLS CITY     MOSUNNY   89  63  41 S17G24    29.91F HX  90

...NORTHERN KANSAS...

CITY           SKY/WX    TMP DP  RH WIND       PRES   REMARKS
GOODLAND       LGT RAIN  52  51  97 N10       29.98S FOG
HILL CITY      LGT RAIN  61  60  97 N9        29.96S
NORTON         DRIZZLE   57  54  88 NW7       29.96
PHILLIPSBURG   RAIN      66  66 100 W3        29.95S
HAYS           CLOUDY    68  64  87 SW5       29.93F
RUSSELL        CLOUDY    73  62  68 W5        29.91F
CONCORDIA      PTSUNNY   84  64  50 S20G26    29.90F
SALINA         MOSUNNY   91  60  35 S18G25    29.89F HX  90
TOPEKA         MOSUNNY   89  68  49 S13       29.93F HX  93



USA.gov is the U.S. government's official web portal to all federal, state and local government web resources and services.